Weather in Itantsa

Russia / Republic of Buryatia     52°09′24″N   107°29′53″E
temp.,
°C
wind,
m/s
gust,
m/s
humid.,
%
clouds,
%
prec.,
mm/h
press.,
hPa
HPBL,
m
24 july, sat
sat2423:00+12wnw22834 0.0 100938
02:00+10w22950 0.0 101027
05:00+9w11972 0.0 101116
08:00+15ssw117528 0.0 1011496
11:00+21wsw23490 0.0 10101417
14:00+25w13375 0.0 10082183
17:00+24nne22350 0.0 10071711
20:00+17nne11660 0.0 101015
25 july, sun
sun2523:00+12nw21790 0.0 101115
02:00+11nne11840 0.0 101115
05:00+10nne11860 0.0 101015
08:00+17sse01635 0.0 1009342
11:00+23sse13440 0.0 10081510
14:00+25ssw033711 0.0 10062285
17:00+24ne23382 0.0 10071875
20:00+18ne116516 0.0 100819
26 july, mon
mon2623:00+14nne117426 0.0 101012
02:00+15ne116995 0.0 101011
05:00+13ne11798 0.0 101010
08:00+18e126057 0.0 1010388
11:00+22e234678 0.0 10091183
14:00+25ene133817 0.0 10071865
17:00+21nne245298 0.0 1007621
20:00+19nne22675 0.0 100733
27 july, tue
tue2723:00+14ne22775 0.0 100824
02:00+13ne22795 0.0 100822
05:00+12ne22835 0.0 100815
08:00+18e27595 0.0 1007662
11:00+23ese46434 0.0 10061697
14:00+25ese443888 0.0 10032448
17:00+21e3856100 0.0 1003414
20:00+19nne226586 0.0 100318
28 july, wed
wed2823:00+17nne226299 0.0 100436
02:00+16nne226679 0.0 100428
05:00+15ne227055 0.0 100425
08:00+17ene117088 0.0 100460
11:00+24sse124514 0.0 10031189
14:00+25w123992 0.0 10012204
17:00+24ne334020 0.0 10011210
20:00+19n226172 0.0 100226